This is the latest recevied weather packets stored in our database for station/object KD4VIF. If no packets are shown the sender has not sent any weather packets the latest 10 day(s).
| Time | Temp. | Humidity | Pressure | Rain* | Wind** | Luminosity | Snow |
|---|---|---|---|---|---|---|---|
| 1777501099 | 25.56° C | 100% | 1006.8 hPa | 0 mm | 0.89 m/s, 264° | - | - |
| 1777500799 | 25.56° C | 100% | 1007 hPa | 0 mm | 1.34 m/s, 306° | - | - |
| 1777500199 | 25.56° C | 100% | 1006.9 hPa | 0 mm | 2.24 m/s, 307° | - | - |
| 1777499900 | 25.56° C | 100% | 1006.9 hPa | 0 mm | 0 m/s | - | - |
| 1777499598 | 25.56° C | 100% | 1006.7 hPa | 0 mm | 0.45 m/s, 282° | - | - |
| 1777499298 | 25.56° C | 100% | 1007 hPa | 0 mm | 0.89 m/s, 289° | - | - |
| 1777498999 | 25.56° C | 100% | 1007 hPa | 0 mm | 0.45 m/s, 303° | - | - |
| 1777498699 | 26.11° C | 100% | 1007 hPa | 0 mm | 0 m/s | - | - |
| 1777498399 | 26.11° C | 100% | 1007.1 hPa | 0 mm | 1.79 m/s, 272° | - | - |
| 1777497799 | 26.11° C | 100% | 1007.1 hPa | 0 mm | 1.34 m/s, 293° | - | - |
| 1777497498 | 26.11° C | 100% | 1007.2 hPa | 0 mm | 1.34 m/s, 286° | - | - |
| 1777497199 | 25.56° C | 100% | 1007.3 hPa | 0 mm | 0 m/s | - | - |
| 1777496299 | 25.56° C | 100% | 1007.4 hPa | 0 mm | 0.45 m/s, 258° | - | - |
| 1777494798 | 25.56° C | 100% | 1007.6 hPa | 0 mm | 1.34 m/s, 299° | - | - |
| 1777494198 | 26.11° C | 100% | 1007.5 hPa | 0 mm | 1.79 m/s, 306° | - | - |
| 1777493898 | 26.11° C | 100% | 1007.6 hPa | 0 mm | 2.68 m/s, 289° | - | - |
| 1777493298 | 25.56° C | 100% | 1007.9 hPa | 0 mm | 0.45 m/s, 277° | - | - |
| 1777492998 | 25.56° C | 100% | 1007.9 hPa | 0 mm | 0 m/s | - | - |
| 1777492698 | 25.56° C | 100% | 1008.2 hPa | 0 mm | 0.45 m/s, 220° | - | - |
| 1777491499 | 25.56° C | 100% | 1008.6 hPa | 0 mm | 1.34 m/s, 306° | - | - |
| 1777489698 | 25° C | 100% | 1009 hPa | 0 mm | 1.79 m/s, 309° | - | - |
| 1777489398 | 24.44° C | 100% | 1009.1 hPa | 0 mm | 2.24 m/s, 303° | - | - |
| 1777489098 | 24.44° C | 100% | 1009.3 hPa | 0 mm | 0.45 m/s, 246° | - | - |
| 1777488798 | 24.44° C | 100% | 1009.3 hPa | 0 mm | 2.24 m/s, 285° | - | - |
| 1777488197 | 23.89° C | 100% | 1009.2 hPa | 0 mm | 0.89 m/s, 278° | - | - |
* Rain latest hour (hover to see other rain measurements)
** Current wind speed in m/s (hover to see current wind gust speed)